STARLINK-1272, 45386

Orbit data source: Space-Track

STARLINK-1272, 45386 is a payload satellite owned by SpaceX/Seattle (US) in LEO that was launched on Wed, 18 Mar 2020 UTC via an FALCON 9 launch vehicle from the Air Force Eastern Test Range (AFETR). Payloads include a variety of satellites, spacecraft, and rockets equipped with specific instruments for various scientific and technological missions. These include communications satellites like Starlink; space stations such as the ISS; scientific satellites like the Hubble; Earth observation satellites from companies like Planet Labs, Umbra, and HawkEye 360; GPS; miniature CubeSats for education and research; and military/defense satellites.

Loading next visibility...
STARLINK-1272 details
Identifier
45386, 2020-019AC
Orbit
LEO
Last TLE update1 day ago
Origin
Flag of USSpaceX/Seattle (US)
ManufacturerSpaceX/Seattle
MissionOperational Commercial Communications
Bus & MotorSTARLINK, Unknown motor
Mass260 kg wet, ~248 kg dry
Launch date (UTC)
2020-03-18 (5 years ago)
Launch vehicle
FALCON 9
Launch site
Air Force Eastern Test Range (AFETR)
Object type
Payload
Rocket body
Debris
Shape & HBRBox + 1 Pan, 8.86 m
Radar Cross Section13.562 m², Large (>1 m²)

Expand to show TLE details & history

TLE from 1 day ago
0 STARLINK-1272
1 45386U 20019AC  24360.19355827  .00020140  00000-0  13681-2 0  9991
2 45386  53.0548 319.5958 0001631  91.4388 268.6788 15.06372555263765
Epoch: 2024-12-25T04:38Z
Definitive object data (Epoch: 2024-12-25T04:38:43.434Z)
Latitude-0.00001°
Longitude155.724°
Altitude548.201 km
Speed7.589 km/s
True Right ascension21h 18m 22s
True Declination0° 00' 00"
Sunlit
Object was in daylight at TLE epoch
Visualization TLE readout
Latitude-1.47658°
Longitude-28.68418°
Altitude548.158 km
Speed7.589 km/s
Apparent Right ascension07h 58m 14s
Apparent Declination-63° 16' 55"
Sunlit
Object is in full shadow
Visualization observer readout
Local Sidereal Time09:27:45
Azimuth190.194° SSW
Elevation-14.731°
Doppler factor1
Orbital elements
Apogee altitude548.696 km
Perigee altitude546.437 km
Semi-major axis6,925.703 km
Eccentricity0.0001631
Inclination53.0548°
RAAN319.5958°
Arg. of periapsis91.4388°
True anomaly268.66012°
Mean anomaly268.6788°
Eccentric anomaly268.66946°
Mean motion3.76571 °/min
BSTAR0.0013681
Orbital period95.6 mins
Loading maneuver chart data...
Loading historical data...
Loading historical data...
Loading historical data...
Loading historical data...
Loading historical data...
Loading historical data...
Loading historical data...

STARLINK-1272 Visibility forecast

Observer location: undefined°, undefined

Span
Click to sort rows by Start time (UTC) header in descending order
Start Az.
Max El. time (UTC)
Max El. Az.
Max El.
End time (UTC)
End Az.
7 mins2024-12-26 23:48:37.628Z224.914° SW2024-12-26 23:52:37.628Z71.993° E42.802°2024-12-26 23:55:37.628Z52.464° ENE
4 mins2024-12-27 01:30:37.628Z307.179° NW2024-12-27 01:31:37.628Z327.009° NNW20.48°2024-12-27 01:34:37.628Z22.728° NE
4 mins2024-12-27 04:52:37.628Z359.863° N2024-12-27 04:53:37.628Z19.613° NNE18.696°2024-12-27 04:56:37.628Z67.746° E
7 mins2024-12-27 06:30:37.628Z312.99° NW2024-12-27 06:33:37.628Z21.332° NNE44.432°2024-12-27 06:37:37.628Z126.358° SE
|